Flag for Greece Weather past 2 weeks in Keratsini, Greece

Now
59 °F

Passing clouds.


Feels Like: 56 °F
Forecast: 48 / 66 °F
Wind: 16 mph from Northeast

Location: Elefsis Airport

Current Time: Apr 2, 2015 at 11:03:30 AM

Latest Report: Apr 2, 2015 at 10:20 AM


Visibility: N/A

Pressure: 29.98 "Hg

Humidity: 39%

Dew point: 34 °F

Location of KeratsiniLocation

Historic Weather in Keratsini — Graph

°F

Keratsini temperature yesterday

Maximum temperature yesterday: 72 °F (at 4:50 PM)
Minimum temperature yesterday: 45 °F (at 5:50 AM)
Average temperature yesterday: 59 °F

Past Weeks' High & Low Weather Summary

 TemperatureHumidityPressure
High72 °F (Apr 1, 4:50 PM)100% (Mar 26, 7:20 PM)30.24 "Hg (Mar 26, 7:20 PM)
Low34 °F (Mar 21, 6:50 AM)25% (Mar 21, 1:20 PM)29.53 "Hg (Mar 28, 3:50 AM)
Average54 °F71%29.94 "Hg
* Reported Mar 18 8:20 AM — Apr 2 9:50 AM, Keratsini, Weather by CustomWeather, © 2015

Note: Actual official high and low records may vary slightly from our data, if they occured in-between our weather recording intervals... More about our weather records

Advertising

Keratsini weather history for previous 24 hours

 ConditionsComfort  
Time TempWeatherWind HumidityBarometerVisibility
9:50 AM
Thu, Apr 2
59 °FPassing clouds.14 mph39%29.95 "HgN/A
9:20 AM57 °FPassing clouds.14 mph41%29.95 "HgN/A
8:50 AM57 °FPassing clouds.9 mph44%29.92 "HgN/A
8:20 AM57 °FPassing clouds.10 mph44%29.89 "HgN/A
7:50 AM55 °FPassing clouds.8 mph47%29.89 "HgN/A
7:20 AM55 °FPassing clouds.12 mph55%29.89 "HgN/A
6:50 AM54 °FPassing clouds.9 mph63%29.86 "HgN/A
6:20 AM55 °FPassing clouds.8 mph67%29.86 "HgN/A
5:50 AM50 °FPassing clouds.3 mph88%29.83 "HgN/A
5:20 AM52 °FPassing clouds.3 mph82%29.80 "HgN/A
4:50 AM54 °FPassing clouds.3 mph82%29.80 "HgN/A
4:20 AM55 °FPassing clouds.3 mph72%29.80 "HgN/A
3:50 AM54 °FPassing clouds.No wind77%29.80 "HgN/A
3:20 AM57 °FPassing clouds.No wind72%29.80 "HgN/A
2:50 AM57 °FPassing clouds.3 mph72%29.80 "HgN/A
2:20 AM59 °FPassing clouds.6 mph68%29.80 "HgN/A
1:50 AM59 °FPassing clouds.6 mph72%29.80 "HgN/A
1:20 AM59 °FPassing clouds.8 mph72%29.80 "HgN/A
12:50 AM59 °FPassing clouds.10 mph72%29.77 "HgN/A
12:20 AM59 °FPassing clouds.10 mph72%29.77 "HgN/A
11:50 PM
Wed, Apr 1
59 °FPassing clouds.9 mph68%29.77 "HgN/A
11:20 PM59 °FPassing clouds.8 mph68%29.74 "HgN/A
10:50 PM59 °FPassing clouds.9 mph63%29.74 "HgN/A
10:20 PM59 °FPassing clouds.8 mph68%29.74 "HgN/A
9:50 PM61 °FPassing clouds.7 mph63%29.71 "HgN/A
9:20 PM61 °FPassing clouds.3 mph63%29.71 "HgN/A
8:50 PM63 °FPassing clouds.No wind59%29.71 "HgN/A
8:20 PM63 °FPassing clouds.6 mph56%29.71 "HgN/A
7:50 PM66 °FPassing clouds.8 mph49%29.68 "HgN/A
7:20 PM68 °FPassing clouds.9 mph43%29.68 "HgN/A
6:50 PM68 °FPassing clouds.10 mph46%29.68 "HgN/A
6:20 PM68 °FPassing clouds.14 mph46%29.68 "HgN/A
5:50 PM70 °FPassing clouds.12 mph43%29.68 "HgN/A
5:20 PM72 °FPassing clouds.12 mph44%29.68 "HgN/A
4:50 PM72 °FScattered clouds.7 mph44%29.68 "HgN/A
4:20 PM68 °FScattered clouds.9 mph53%29.71 "HgN/A
3:50 PM70 °FScattered clouds.14 mph50%29.71 "HgN/A
3:20 PM70 °FScattered clouds.14 mph50%29.74 "HgN/A
2:50 PM68 °FSunny.14 mph53%29.74 "Hg10 mi
2:20 PM66 °FSunny.14 mph60%29.74 "Hg10 mi
1:50 PM66 °FSunny.14 mph56%29.77 "Hg10 mi
1:20 PM68 °FSunny.14 mph53%29.77 "Hg10 mi
12:50 PM66 °FSunny.14 mph56%29.77 "Hg10 mi
12:20 PM66 °FSunny.12 mph56%29.80 "Hg10 mi
11:50 AM64 °FSunny.12 mph60%29.80 "Hg10 mi
11:20 AM64 °FSunny.9 mph60%29.80 "Hg10 mi
Weather by CustomWeather, © 2015

See weather overviewHow to use our weather pages